Regional Weather Roundup
Issued by NWS Charleston, WV

Home | Current Version | Previous Version | Graphics & Text | Print | Product List | Glossary On
Versions: 1 2 3 4 5 6 7 8 9 10 11 12 13 14 15 16 17 18 19 20 21 22 23 24 25 26 27 28 29 30 31 32 33 34 35 36 37 38 39 40 41 42 43 44 45 46 47 48 49 50
000
ASUS41 KRLX 111510
RWRRLX
West Virginia Regional Weather Roundup
National Weather Service Charleston WV
1000 AM EST THU FEB 11 2016

Note: "fair" indicates few or no clouds below 12,000 feet with no
significant weather and/or obstructions to visibility.

WVZ003-111600-
Northern Panhandle of West Virginia

CITY           SKY/WX    TMP DP  RH WIND       PRES   REMARKS
WHEELING       CLOUDY    13   4  67 W14G21    30.15R WCI  -2
$$

WVZ009-111600-
Northwest West Virginia

CITY           SKY/WX    TMP DP  RH WIND       PRES   REMARKS
PARKERSBURG      N/A     14   5  67 NW6       30.27R WCI   5
$$

WVZ006-111600-
Western West Virginia

CITY           SKY/WX    TMP DP  RH WIND       PRES   REMARKS
HUNTINGTON     PTSUNNY   19   5  54 NW6       30.27R
$$

WVZ015-111600-
West Central West Virginia

CITY           SKY/WX    TMP DP  RH WIND       PRES   REMARKS
CHARLESTON       N/A     17   3  54 VRB5      30.25R WCI  10
$$

WVZ022-031-111600-
North Central West Virginia

CITY           SKY/WX    TMP DP  RH WIND       PRES   REMARKS
CLARKSBURG       N/A     13   4  67 W12       30.18R WCI  -1
MORGANTOWN     CLOUDY    13   2  61 W9        30.15R WCI   1
$$

WVZ025-035-042-045-111600-
Southern West Virginia

CITY           SKY/WX    TMP DP  RH WIND       PRES   REMARKS
BECKLEY        FLURRIES  12   3  67 W13       30.09S WCI  -3
LOGAN          CLOUDY    16   5  62 CALM      30.19S
BLUEFIELD        N/A     12   3  67 NW14G28   30.06R WCI  -3
LEWISBURG        N/A     16   4  58 NW12G17   30.09R WCI   3
$$

WVZ047-111600-
Northern Mountains of West Virginia

CITY           SKY/WX    TMP DP  RH WIND       PRES   REMARKS
ELKINS         LGT SNOW  10   1  67 VRB6      30.11R WCI   0
$$

WVZ052-111600-
Eastern Panhandle of West Virginia

CITY           SKY/WX    TMP DP  RH WIND       PRES   REMARKS
MARTINSBURG    CLOUDY    19   2  47 W17G31    30.11R WCI   4
PETERSBURG       N/A     19   0  43 W18G32    30.14S WCI   4
$$



USA.gov is the U.S. government's official web portal to all federal, state and local government web resources and services.